User: anonymous   Login
Location: Tucson
(32.2217°N, 110.9265°W)
Time: 17:51:54
(UTC-07:00)
Language:

N. Korean satellite - Orbit

View from above orbital plane
View from above orbital plane
View from above satellite
View from above satellite

Ground track
Ground track

The orbit data is extracted from the following two-line orbital elements,

1 39026U 12072A   19197.49893434  .00001025  00000-0  39599-4 0  9990
2 39026  97.2107 199.7458 0038211   5.3119 354.8519 15.27865675365848
Epoch (UTC): 16 July 2019 11:58:27
Eccentricity: 0.0038211
inclination: 97.2107°
perigee height: 456 km
apogee height: 508 km
right ascension of ascending node: 199.7458°
argument of perigee: 5.3119°
revolutions per day: 15.27865675
mean anomaly at epoch: 354.8519°
orbit number at epoch: 36584

The dashed part of the orbit path shows where the satellite is in the earth's shadow,  

DLR